QPF
0.00 0.00 0.00 0.00 0.00 0.00 0.00 0.00 0.00 0.00 0.00 0.00 0.00 0.00 0.00 0.00 0.00 0.00 0.00 0.00 0.00 0.00 0.00 0.00 0.00 0.00 0.00 0.00 0.00 0.00 0.00 0.00 0.00 0.00 0.00 0.00 0.00 0.00 0.00 0.00 0.00 0.00 0.00 0.00 0.00
0.00 0.00 0.00 0.00 0.00 0.00 0.00 0.00 0.00 0.00 0.00 0.00 0.00 0.00 0.00 0.00 0.00 0.00 0.00 0.00 0.00 0.00 0.00 0.00 0.00 0.00 0.00 0.00 0.00 0.00 0.00 0.00 0.00 0.00 0.00 0.00 0.00 0.00 0.00 0.00 0.00 0.00 0.00 0.00 0.00
0.00 0.00 0.00 0.00 0.00 0.00 0.00 0.00 0.00 0.00 0.00 0.00 0.00 0.00 0.00 0.00 0.00 0.00 0.00 0.00 0.00 0.00 0.00 0.00 0.00 0.00 0.00 0.00 0.00 0.00 0.00 0.00 0.00 0.00 0.00 0.00 0.00 0.00 0.00 0.00 0.00 0.00 0.00 0.00 0.00
0.00 0.00 0.00 0.00 0.00 0.00 0.00 0.00 0.00 0.00 0.00 0.00 0.00 0.00 0.00 0.00 0.00 0.00 0.00 0.00 0.00 0.00 0.00 0.00 0.00 0.00 0.00 0.00 0.00 0.00 0.00 0.00 0.00 0.00 0.00 0.00 0.00 0.00 0.00 0.00 0.00 0.00 0.00 0.00 0.00
0.00 0.00 0.00 0.00 0.00 0.00 0.00 0.00 0.00 0.00 0.00 0.00 0.00 0.00 0.00 0.00 0.00 0.00 0.00 0.00 0.00 0.00 0.00 0.00 0.00 0.00 0.00 0.00 0.00 0.00 0.00 0.00 0.00 0.00 0.00 0.00 0.00 0.00 0.00 0.00 0.00 0.00 0.00 0.00 0.00
0.00 0.00 0.00 0.00 0.00 0.00 0.00 0.00 0.00 0.00 0.00 0.00 0.00 0.00 0.00 0.00 0.00 0.00 0.00 0.00 0.00 0.00 0.00 0.00 0.00 0.00 0.00 0.00 0.00 0.00 0.00 0.00 0.00 0.00 0.00 0.00 0.00 0.00 0.00 0.00 0.00 0.00 0.00 0.00 0.00
0.00 0.00 0.00 0.00 0.00 0.00 0.00 0.00 0.00 0.00 0.00 0.00 0.00 0.00 0.00 0.00 0.00 0.00 0.00 0.00 0.00 0.00 0.00 0.00 0.00 0.00 0.00 0.00 0.00 0.00 0.00 0.00 0.00 0.00 0.00 0.00 0.00 0.00 0.00 0.00 0.00 0.00 0.00 0.00 0.00
0.00 0.00 0.00 0.00 0.00 0.00 0.00 0.00 0.00 0.00 0.00 0.00 0.00 0.00 0.00 0.00 0.00 0.00 0.00 0.00 0.00 0.00 0.00 0.00 0.00 0.00 0.00 0.00 0.00 0.00 0.00 0.00 0.00 0.00 0.00 0.00 0.00 0.00 0.00 0.00 0.00 0.00 0.00 0.00 0.00
0.00 0.00 0.00 0.00 0.00 0.00 0.00 0.00 0.00 0.00 0.00 0.00 0.00 0.00 0.00 0.00 0.00 0.00 0.00 0.00 0.00 0.00 0.00 0.00 0.00 0.00 0.00 0.00 0.00 0.00 0.00 0.00 0.00 0.00 0.00 0.00 0.00 0.00 0.00 0.00 0.00 0.00 0.00 0.00 0.00
0.00 0.00 0.00 0.00 0.00 0.00 0.00 0.00 0.00 0.00 0.00 0.00 0.00 0.00 0.00 0.00 0.00 0.00 0.00 0.00 0.00 0.00 0.00 0.00 0.00 0.00 0.00 0.00 0.00 0.00 0.00 0.00 0.00 0.00 0.00 0.00 0.00 0.00 0.00 0.00 0.00 0.00 0.00 0.00 0.00
0.00 0.00 0.00 0.00 0.00 0.00 0.00 0.00 0.00 0.00 0.00 0.00 0.00 0.00 0.00 0.00 0.00 0.00 0.00 0.00 0.00 0.00 0.00 0.00 0.00 0.00 0.00 0.00 0.00 0.00 0.00 0.00 0.00 0.00 0.00 0.00 0.00 0.00 0.00 0.00 0.00 0.00 0.00 0.00 0.00
0.00 0.00 0.00 0.00 0.00 0.00 0.00 0.00 0.00 0.00 0.00 0.00 0.00 0.00 0.00 0.00 0.00 0.00 0.00 0.00 0.00 0.00 0.00 0.00 0.00 0.00 0.00 0.00 0.00 0.00 0.00 0.00 0.00 0.00 0.00 0.00 0.00 0.00 0.00 0.00 0.00 0.00 0.00 0.00 0.00
0.00 0.00 0.00 0.00 0.00 0.00 0.00 0.00 0.00 0.00 0.00 0.00 0.00 0.00 0.00 0.00 0.00 0.00 0.00 0.00 0.00 0.00 0.00 0.00 0.00 0.00 0.00 0.00 0.00 0.00 0.00 0.00 0.00 0.00 0.00 0.00 0.00 0.00 0.00 0.00 0.00 0.00 0.00 0.00 0.00
0.00 0.00 0.00 0.00 0.00 0.00 0.00 0.00 0.00 0.00 0.00 0.00 0.00 0.00 0.00 0.00 0.00 0.00 0.00 0.00 0.00 0.00 0.00 0.00 0.00 0.00 0.00 0.00 0.00 0.00 0.00 0.00 0.00 0.00 0.00 0.00 0.00 0.00 0.00 0.00 0.00 0.00 0.00 0.00 0.00
0.00 0.00 0.00 0.00 0.00 0.00 0.00 0.00 0.00 0.00 0.00 0.00 0.00 0.00 0.00 0.00 0.00 0.00 0.00 0.00 0.00 0.00 0.00 0.00 0.00 0.00 0.00 0.00 0.00 0.00 0.00 0.00 0.00 0.00 0.00 0.00 0.00 0.00 0.00 0.00 0.00 0.00 0.00 0.00 0.00
0.00 0.00 0.00 0.00 0.00 0.00 0.00 0.00 0.00 0.00 0.00 0.00 0.00 0.00 0.00 0.00 0.00 0.00 0.00 0.00 0.00 0.00 0.00 0.00 0.00 0.00 0.00 0.00 0.00 0.00 0.00 0.00 0.00 0.00 0.00 0.00 0.00 0.00 0.00 0.00 0.00 0.00 0.00 0.00 0.00
0.00 0.00 0.00 0.00 0.00 0.00 0.00 0.00 0.00 0.00 0.00 0.00 0.00 0.00 0.00 0.00 0.00 0.00 0.00 0.00 0.00 0.00 0.00 0.00 0.00 0.00 0.00 0.00 0.00 0.00 0.00 0.00 0.00 0.00 0.00 0.00 0.00 0.00 0.00 0.00 0.00 0.00 0.00 0.00 0.00
0.00 0.00 0.00 0.00 0.00 0.00 0.00 0.00 0.00 0.00 0.00 0.00 0.00 0.00 0.00 0.00 0.00 0.00 0.00 0.00 0.00 0.00 0.00 0.00 0.00 0.00 0.00 0.00 0.00 0.00 0.00 0.00 0.00 0.00 0.00 0.00 0.00 0.00 0.00 0.00 0.00 0.00 0.00 0.00 0.00
0.00 0.00 0.00 0.00 0.00 0.00 0.00 0.00 0.00 0.00 0.00 0.00 0.00 0.00 0.00 0.00 0.00 0.00 0.00 0.00 0.00 0.00 0.00 0.00 0.00 0.00 0.00 0.00 0.00 0.00 0.00 0.00 0.00 0.00 0.00 0.00 0.00 0.00 0.00 0.00 0.00 0.00 0.00 0.00 0.00
0.00 0.00 0.00 0.00 0.00 0.00 0.00 0.00 0.00 0.00 0.00 0.00 0.00 0.00 0.00 0.00 0.00 0.00 0.00 0.00 0.00 0.00 0.00 0.00 0.00 0.00 0.00 0.00 0.00 0.00 0.00 0.00 0.00 0.00 0.00 0.00 0.00 0.00 0.00 0.00 0.00 0.00 0.00 0.00 0.00
0.00 0.00 0.00 0.00 0.00 0.00 0.00 0.00 0.00 0.00 0.00 0.00 0.00 0.00 0.00 0.00 0.00 0.00 0.00 0.00 0.00 0.00 0.00 0.00 0.00 0.00 0.00 0.00 0.00 0.00 0.00 0.00 0.00 0.00 0.00 0.00 0.00 0.00 0.00 0.00 0.00 0.00 0.00 0.00 0.00
0.00 0.00 0.00 0.00 0.00 0.00 0.00 0.00 0.00 0.00 0.00 0.00 0.00 0.00 0.00 0.00 0.00 0.00 0.00 0.00 0.00 0.00 0.00 0.00 0.00 0.00 0.00 0.00 0.00 0.00 0.00 0.00 0.00 0.00 0.00 0.00 0.00 0.00 0.00 0.00 0.00 0.00 0.00 0.00 0.00
0.00 0.00 0.00 0.00 0.00 0.00 0.00 0.00 0.00 0.00 0.00 0.00 0.00 0.00 0.00 0.00 0.00 0.00 0.00 0.00 0.00 0.00 0.00 0.00 0.00 0.00 0.00 0.00 0.00 0.00 0.00 0.00 0.00 0.00 0.00 0.00 0.00 0.00 0.00 0.00 0.00 0.00 0.00 0.00 0.00
0.00 0.00 0.00 0.00 0.00 0.00 0.00 0.00 0.00 0.00 0.00 0.00 0.00 0.00 0.00 0.00 0.00 0.00 0.00 0.00 0.00 0.00 0.00 0.00 0.00 0.00 0.00 0.00 0.00 0.00 0.00 0.00 0.00 0.00 0.00 0.00 0.00 0.00 0.00 0.00 0.00 0.00 0.00 0.00 0.00
0.00 0.00 0.00 0.00 0.00 0.00 0.00 0.00 0.00 0.00 0.00 0.00 0.00 0.00 0.00 0.00 0.00 0.00 0.00 0.00 0.00 0.00 0.00 0.00 0.00 0.00 0.00 0.00 0.00 0.00 0.00 0.00 0.00 0.00 0.00 0.00 0.00 0.00 0.00 0.00 0.00 0.00 0.00 0.00 0.00
0.00 0.00 0.00 0.00 0.00 0.00 0.00 0.00 0.00 0.00 0.00 0.00 0.00 0.00 0.00 0.00 0.00 0.00 0.00 0.00 0.00 0.00 0.00 0.00 0.00 0.00 0.00 0.00 0.00 0.00 0.00 0.00 0.00 0.00 0.00 0.00 0.00 0.00 0.00 0.00 0.00 0.00 0.00 0.00 0.00
0.00 0.00 0.00 0.00 0.00 0.00 0.00 0.00 0.00 0.00 0.00 0.00 0.00 0.00 0.00 0.00 0.00 0.00 0.00 0.00 0.00 0.00 0.00 0.00 0.00 0.00 0.00 0.00 0.00 0.00 0.00 0.00 0.00 0.00 0.00 0.00 0.00 0.00 0.00 0.00 0.00 0.00 0.00 0.00 0.00
MSLP
1019.41 1019.71 1019.90 1020.05 1020.09 1020.13 1020.24 1020.40 1020.45 1020.43 1020.42 1020.44 1020.36 1020.45 1020.54 1020.54 1020.11 1020.02 1020.63 1020.96 1020.50 1019.71 1019.08 1018.67 1018.49 1018.34 1018.60 1019.32 1019.67 1019.92 1021.35 1022.87 1022.93 1023.06 1023.86 1024.14 1024.40 1024.60 1024.67 1024.87 1025.00 1025.05 1025.36 1026.01 1026.40
1019.77 1019.90 1020.02 1020.09 1020.11 1020.22 1020.35 1020.50 1020.63 1020.68 1020.69 1020.69 1020.68 1020.69 1020.76 1020.79 1020.83 1020.80 1021.21 1020.84 1020.38 1019.75 1019.45 1019.23 1019.09 1018.94 1019.58 1020.30 1020.60 1021.06 1022.53 1023.20 1023.48 1023.59 1024.02 1024.51 1024.72 1024.89 1025.08 1025.27 1025.20 1025.18 1025.61 1026.10 1026.31
1020.00 1020.07 1020.17 1020.19 1020.28 1020.30 1020.48 1020.60 1020.79 1020.90 1020.90 1020.87 1020.89 1020.88 1020.93 1020.86 1021.02 1021.61 1021.22 1020.86 1020.31 1019.81 1019.69 1019.50 1019.40 1019.44 1020.41 1021.20 1021.91 1022.22 1023.12 1023.51 1024.05 1024.15 1024.41 1024.98 1025.18 1025.08 1025.24 1025.34 1025.42 1025.56 1025.92 1026.25 1026.57
1020.12 1020.23 1020.29 1020.36 1020.41 1020.49 1020.58 1020.78 1020.94 1021.04 1021.06 1021.03 1021.02 1021.04 1020.99 1020.96 1021.96 1021.87 1021.33 1020.92 1020.37 1019.87 1019.52 1019.64 1019.73 1020.20 1021.39 1022.08 1022.46 1023.32 1023.73 1023.75 1024.31 1024.64 1024.98 1025.35 1025.51 1025.49 1025.31 1025.09 1025.10 1025.25 1025.52 1026.04 1026.93
1020.21 1020.38 1020.46 1020.44 1020.54 1020.60 1020.76 1020.91 1021.04 1021.13 1021.19 1021.20 1021.22 1021.28 1021.22 1021.32 1022.09 1021.90 1021.53 1021.24 1020.63 1020.27 1020.30 1020.36 1020.66 1021.07 1022.12 1022.52 1022.91 1023.70 1024.15 1024.29 1024.74 1025.07 1025.36 1025.58 1025.71 1025.69 1025.05 1024.90 1024.93 1025.15 1025.50 1026.18 1027.15
1020.31 1020.45 1020.53 1020.55 1020.64 1020.68 1020.84 1021.00 1021.07 1021.18 1021.28 1021.36 1021.42 1021.47 1021.54 1021.92 1021.99 1021.98 1021.95 1021.63 1021.32 1021.03 1021.26 1021.16 1021.71 1021.66 1022.45 1023.16 1023.54 1024.24 1024.56 1024.84 1025.10 1025.34 1025.51 1025.69 1025.73 1025.85 1024.63 1024.29 1024.58 1025.03 1025.66 1026.45 1027.03
1020.46 1020.48 1020.50 1020.57 1020.70 1020.80 1020.94 1021.04 1021.13 1021.26 1021.37 1021.45 1021.53 1021.60 1021.72 1022.54 1022.18 1022.22 1022.09 1022.10 1021.93 1021.58 1021.71 1021.86 1021.92 1022.08 1022.89 1023.94 1024.30 1024.70 1025.14 1025.32 1025.46 1025.61 1025.83 1025.89 1025.69 1025.30 1024.39 1024.33 1024.58 1025.06 1025.57 1026.38 1027.04
1020.46 1020.49 1020.51 1020.59 1020.71 1020.88 1021.01 1021.10 1021.22 1021.39 1021.50 1021.59 1021.64 1021.73 1022.32 1022.35 1022.31 1022.31 1022.33 1022.46 1022.28 1021.99 1021.95 1022.08 1022.09 1022.72 1023.62 1024.40 1024.77 1025.07 1025.39 1025.84 1025.64 1025.82 1026.21 1026.35 1025.29 1024.12 1023.84 1024.32 1024.72 1025.11 1025.50 1026.37 1027.16
1020.46 1020.52 1020.54 1020.56 1020.71 1020.94 1021.10 1021.24 1021.42 1021.53 1021.58 1021.69 1021.90 1021.89 1022.57 1022.44 1022.51 1022.47 1022.53 1022.73 1022.58 1022.39 1022.23 1022.15 1022.48 1023.76 1024.43 1024.81 1025.45 1025.50 1025.67 1025.85 1025.88 1025.79 1026.27 1026.63 1025.33 1023.96 1023.65 1024.10 1024.57 1024.91 1025.48 1026.43 1027.28
1020.42 1020.57 1020.60 1020.55 1020.76 1020.98 1021.17 1021.36 1021.52 1021.66 1021.78 1021.67 1021.62 1022.31 1023.01 1022.55 1022.62 1022.74 1022.76 1022.75 1022.79 1022.75 1022.74 1022.88 1023.65 1024.65 1025.15 1025.16 1025.48 1025.57 1025.59 1025.45 1025.61 1025.81 1026.19 1026.35 1025.05 1024.32 1024.02 1024.06 1024.18 1024.52 1025.34 1026.30 1027.03
1020.43 1020.61 1020.71 1020.72 1020.87 1021.06 1021.35 1021.77 1022.30 1022.28 1021.75 1021.48 1021.53 1021.77 1022.27 1022.60 1022.68 1023.01 1023.01 1022.99 1022.99 1023.12 1023.60 1024.12 1024.72 1025.34 1025.29 1025.17 1025.10 1025.22 1025.46 1025.68 1025.63 1025.93 1026.38 1025.98 1025.22 1023.92 1023.48 1023.47 1023.57 1024.21 1025.11 1026.24 1026.93
1020.54 1020.74 1020.91 1020.93 1021.03 1021.27 1021.63 1021.66 1021.31 1021.50 1021.62 1021.44 1021.50 1021.77 1022.14 1022.45 1022.96 1023.21 1023.19 1023.48 1023.43 1023.87 1024.16 1024.83 1025.16 1025.29 1025.43 1025.57 1025.61 1025.83 1026.15 1026.34 1026.31 1026.49 1026.77 1026.24 1024.98 1023.05 1022.83 1022.48 1022.73 1023.47 1024.71 1025.79 1026.76
1020.60 1020.74 1020.94 1021.11 1021.33 1021.77 1021.76 1021.45 1021.09 1021.10 1021.44 1021.66 1021.53 1021.80 1022.05 1022.47 1022.64 1023.17 1023.46 1023.41 1023.62 1024.04 1024.46 1024.94 1025.13 1025.28 1025.78 1026.37 1026.68 1026.83 1027.00 1027.07 1027.47 1027.51 1027.21 1027.10 1025.63 1023.42 1022.62 1022.61 1022.70 1022.84 1023.72 1025.18 1025.95
1020.60 1020.74 1020.99 1021.27 1021.98 1021.75 1021.68 1020.94 1021.09 1021.34 1021.82 1021.75 1021.69 1021.65 1021.91 1022.24 1022.90 1022.97 1023.36 1023.75 1023.78 1024.13 1024.65 1025.11 1025.31 1025.64 1026.27 1026.91 1027.37 1028.13 1027.91 1028.07 1028.54 1029.12 1028.97 1028.11 1027.07 1024.51 1023.11 1023.04 1023.21 1023.59 1024.19 1025.08 1025.78
1020.73 1020.85 1021.06 1021.27 1021.79 1021.72 1021.41 1021.20 1021.28 1021.70 1022.17 1021.80 1021.87 1021.93 1022.06 1022.70 1023.32 1023.83 1023.82 1024.03 1024.28 1024.47 1025.02 1025.34 1025.57 1026.08 1026.77 1027.17 1027.73 1028.79 1029.06 1029.55 1029.95 1030.29 1030.83 1029.39 1028.94 1024.42 1023.72 1023.36 1023.32 1023.71 1024.42 1025.02 1025.49
1020.89 1020.96 1021.18 1021.61 1021.85 1021.36 1021.24 1021.27 1021.74 1022.25 1021.61 1021.62 1022.17 1022.31 1022.67 1022.91 1023.62 1024.26 1024.39 1024.53 1024.91 1025.08 1025.27 1025.63 1025.71 1026.10 1026.89 1027.84 1028.34 1029.46 1030.28 1030.96 1031.31 1031.70 1031.49 1029.36 1028.79 1025.83 1024.20 1022.48 1022.45 1023.13 1024.04 1024.80 1025.41
1020.91 1021.03 1021.36 1021.32 1021.50 1021.30 1021.49 1022.04 1022.51 1021.72 1020.76 1021.69 1022.20 1022.69 1023.05 1023.29 1024.02 1024.40 1024.95 1025.29 1025.54 1026.06 1026.21 1026.27 1026.46 1026.69 1027.16 1028.76 1029.81 1030.53 1031.65 1032.27 1032.57 1032.46 1030.96 1029.74 1029.39 1025.19 1022.99 1022.31 1022.31 1022.67 1023.56 1024.24 1025.01
1020.79 1020.94 1021.11 1021.20 1021.23 1021.45 1022.11 1022.58 1022.07 1020.01 1020.13 1020.65 1021.34 1022.38 1022.89 1023.08 1023.89 1024.54 1025.23 1025.70 1025.45 1025.69 1026.29 1026.49 1027.28 1027.22 1027.56 1028.58 1029.78 1031.30 1031.79 1031.62 1031.91 1032.13 1031.07 1030.16 1028.19 1023.76 1022.05 1021.77 1022.22 1022.26 1022.70 1023.83 1024.73
1020.49 1021.16 1021.34 1021.22 1021.27 1021.79 1022.43 1022.62 1020.21 1019.19 1018.99 1020.08 1021.44 1022.11 1022.65 1022.62 1023.34 1024.31 1025.01 1025.05 1024.27 1024.52 1025.02 1026.06 1027.20 1027.97 1028.54 1029.18 1030.11 1031.88 1031.80 1031.11 1031.47 1031.96 1031.41 1028.42 1025.96 1022.91 1021.81 1022.35 1022.53 1022.88 1023.29 1023.74 1024.30
1020.86 1021.12 1020.98 1020.69 1021.17 1022.21 1022.89 1021.22 1019.34 1017.85 1018.42 1019.23 1020.06 1020.44 1021.57 1022.26 1023.07 1023.75 1024.01 1022.76 1023.02 1022.90 1023.52 1024.96 1027.23 1028.65 1029.44 1029.75 1030.75 1031.12 1031.33 1031.50 1031.68 1031.70 1030.70 1027.75 1025.53 1022.59 1021.88 1022.03 1022.68 1023.20 1023.27 1023.53 1024.17
1021.01 1021.17 1021.08 1020.81 1021.25 1022.39 1022.22 1020.70 1018.73 1017.54 1017.47 1018.48 1019.01 1019.83 1020.54 1021.36 1022.12 1022.82 1022.47 1021.65 1021.59 1022.69 1023.26 1024.81 1026.22 1029.59 1029.99 1030.06 1030.21 1031.47 1031.41 1031.52 1031.21 1030.64 1029.65 1027.87 1023.09 1020.49 1020.26 1020.65 1021.36 1021.83 1022.28 1022.77 1023.25
1020.87 1021.40 1020.94 1020.97 1021.88 1021.65 1021.11 1019.58 1018.11 1017.47 1017.45 1017.87 1018.36 1018.95 1019.56 1020.18 1021.29 1021.75 1021.40 1020.54 1020.45 1021.48 1023.38 1024.12 1026.17 1028.47 1028.84 1029.46 1029.77 1030.05 1030.01 1030.02 1030.26 1029.68 1028.88 1027.07 1021.59 1019.24 1019.57 1019.56 1020.25 1020.71 1021.33 1021.64 1022.25
1020.40 1021.00 1021.34 1021.26 1021.33 1021.01 1019.86 1018.78 1018.08 1017.66 1017.58 1017.89 1018.28 1018.43 1018.74 1019.45 1020.37 1020.16 1020.08 1020.30 1020.44 1020.97 1021.58 1023.02 1024.98 1027.24 1028.62 1029.40 1029.45 1029.38 1028.77 1028.55 1028.39 1027.95 1027.04 1025.68 1020.53 1018.95 1019.01 1019.27 1019.78 1020.42 1020.67 1021.24 1021.70
1019.72 1020.68 1021.55 1021.59 1020.35 1019.81 1019.50 1018.23 1017.65 1017.10 1017.31 1017.64 1017.79 1018.18 1018.80 1018.96 1018.85 1019.26 1020.07 1020.44 1020.56 1020.98 1021.44 1021.94 1023.29 1023.81 1024.48 1025.23 1025.99 1027.68 1027.18 1026.70 1026.81 1026.81 1025.18 1021.15 1019.76 1018.25 1018.64 1019.07 1019.55 1019.86 1020.05 1020.43 1020.74
1018.53 1018.27 1018.44 1019.95 1019.55 1019.07 1018.51 1017.36 1016.98 1017.18 1017.13 1017.15 1017.47 1017.43 1017.94 1018.57 1018.57 1018.80 1019.45 1020.54 1020.93 1021.11 1021.72 1022.24 1022.71 1023.03 1022.90 1023.43 1024.13 1024.26 1024.46 1024.86 1024.86 1023.95 1023.11 1018.33 1019.25 1015.59 1016.18 1017.54 1017.97 1017.91 1018.77 1019.64 1020.32
1016.44 1017.14 1017.58 1017.44 1017.33 1017.97 1017.70 1016.11 1016.43 1016.15 1016.31 1016.59 1016.51 1016.52 1016.97 1016.90 1016.53 1017.01 1018.10 1019.06 1019.65 1021.45 1021.76 1022.35 1022.22 1022.49 1022.31 1022.16 1022.66 1022.80 1022.38 1022.86 1023.10 1022.15 1021.09 1019.23 1016.92 1015.04 1014.16 1016.43 1016.85 1016.44 1017.52 1018.30 1018.39
1014.88 1015.47 1016.10 1016.02 1016.42 1016.79 1015.18 1014.77 1014.25 1015.33 1015.37 1015.13 1015.45 1016.36 1016.48 1015.00 1015.40 1016.10 1017.12 1017.81 1018.39 1019.28 1020.91 1021.57 1021.80 1022.02 1021.56 1021.28 1021.83 1021.44 1019.24 1019.83 1019.74 1019.29 1018.39 1018.44 1014.73 1013.67 1014.69 1014.84 1015.14 1015.13 1016.40 1016.63 1016.56
Thickness
5600 5601 5603 5605 5609 5612 5615 5617 5621 5624 5628 5631 5635 5638 5640 5644 5650 5654 5649 5651 5657 5664 5671 5677 5680 5682 5681 5675 5674 5676 5642 5622 5652 5653 5639 5639 5636 5636 5636 5634 5632 5633 5630 5625 5623
5596 5598 5601 5603 5606 5609 5611 5614 5616 5620 5623 5627 5630 5633 5636 5639 5642 5643 5644 5649 5655 5661 5666 5667 5669 5673 5664 5665 5661 5657 5631 5646 5642 5640 5635 5633 5632 5631 5630 5624 5628 5629 5625 5619 5619
5592 5594 5597 5600 5602 5605 5607 5610 5612 5615 5618 5622 5626 5629 5632 5636 5639 5634 5640 5645 5652 5657 5661 5664 5665 5668 5657 5651 5647 5648 5626 5639 5632 5632 5631 5627 5626 5629 5625 5624 5622 5620 5619 5615 5614
5589 5591 5593 5596 5598 5601 5603 5605 5608 5610 5613 5617 5621 5624 5628 5632 5637 5630 5636 5641 5647 5654 5659 5659 5660 5655 5638 5639 5642 5631 5633 5634 5629 5624 5623 5620 5620 5616 5621 5621 5623 5622 5619 5617 5606
5585 5587 5589 5592 5595 5597 5599 5601 5603 5606 5609 5612 5615 5618 5623 5625 5620 5625 5630 5635 5642 5647 5646 5649 5645 5645 5632 5635 5635 5624 5626 5625 5617 5616 5615 5615 5611 5610 5615 5617 5617 5618 5615 5609 5598
5581 5583 5586 5589 5591 5594 5595 5597 5600 5602 5604 5606 5609 5613 5615 5615 5617 5620 5623 5628 5632 5636 5633 5635 5633 5636 5630 5625 5618 5618 5616 5615 5612 5612 5612 5610 5608 5604 5617 5622 5616 5612 5609 5597 5594
5578 5581 5584 5586 5587 5589 5591 5593 5595 5596 5598 5601 5603 5607 5608 5603 5610 5613 5616 5619 5622 5627 5626 5625 5626 5629 5624 5610 5613 5606 5606 5603 5602 5604 5603 5599 5604 5597 5612 5616 5616 5608 5604 5593 5587
5576 5578 5580 5582 5583 5584 5586 5588 5589 5590 5592 5594 5597 5600 5593 5600 5604 5606 5608 5610 5614 5618 5619 5620 5620 5616 5610 5604 5604 5602 5595 5579 5597 5595 5592 5592 5604 5618 5613 5606 5602 5600 5597 5587 5580
5573 5574 5576 5578 5579 5580 5580 5581 5582 5584 5586 5588 5590 5593 5588 5594 5596 5599 5601 5601 5605 5608 5612 5614 5612 5600 5600 5584 5572 5591 5580 5597 5588 5588 5584 5582 5590 5607 5609 5604 5597 5594 5590 5578 5570
5568 5569 5571 5573 5574 5574 5575 5575 5576 5577 5579 5582 5587 5582 5577 5587 5587 5590 5592 5595 5597 5599 5601 5602 5588 5568 5562 5565 5585 5591 5577 5601 5599 5587 5581 5577 5580 5591 5597 5599 5596 5591 5583 5570 5565
5564 5564 5565 5567 5568 5568 5569 5567 5563 5564 5574 5575 5581 5583 5580 5579 5582 5580 5584 5586 5589 5590 5576 5581 5565 5560 5580 5588 5592 5592 5593 5590 5591 5576 5576 5568 5578 5592 5595 5591 5593 5585 5572 5561 5556
5560 5559 5559 5560 5561 5561 5561 5562 5567 5570 5567 5573 5576 5575 5575 5575 5571 5572 5576 5575 5578 5570 5575 5559 5549 5579 5573 5573 5576 5577 5572 5563 5571 5565 5565 5562 5577 5600 5593 5591 5592 5581 5565 5556 5547
5555 5555 5554 5554 5554 5553 5553 5557 5563 5565 5560 5565 5570 5568 5569 5569 5573 5563 5566 5570 5571 5571 5568 5554 5571 5568 5563 5555 5549 5559 5543 5551 5551 5544 5549 5549 5559 5595 5593 5585 5582 5577 5567 5553 5546
5551 5550 5549 5548 5544 5546 5547 5556 5557 5558 5547 5559 5557 5564 5563 5565 5562 5563 5561 5562 5564 5560 5558 5559 5556 5555 5551 5546 5533 5528 5541 5542 5537 5512 5517 5537 5522 5567 5588 5574 5566 5562 5550 5542 5536
5545 5544 5544 5543 5540 5541 5546 5548 5550 5547 5541 5552 5552 5557 5557 5555 5549 5547 5551 5549 5548 5552 5541 5549 5541 5540 5536 5538 5530 5521 5520 5513 5510 5499 5465 5514 5470 5548 5574 5572 5553 5543 5538 5531 5526
5536 5538 5537 5535 5535 5539 5540 5541 5538 5539 5543 5544 5539 5541 5541 5548 5541 5536 5538 5540 5537 5542 5541 5538 5536 5535 5530 5515 5519 5504 5479 5478 5460 5451 5446 5496 5480 5530 5544 5562 5575 5548 5536 5525 5516
5528 5529 5528 5530 5529 5532 5531 5525 5522 5523 5558 5537 5527 5530 5530 5532 5527 5525 5519 5507 5503 5498 5514 5522 5517 5516 5513 5495 5494 5461 5451 5460 5471 5441 5497 5486 5457 5525 5543 5537 5545 5544 5530 5522 5510
5521 5520 5521 5520 5522 5522 5517 5510 5519 5557 5550 5537 5534 5521 5520 5525 5523 5515 5504 5489 5504 5500 5477 5506 5508 5493 5501 5485 5475 5438 5452 5481 5490 5473 5479 5460 5465 5529 5530 5525 5528 5528 5527 5515 5506
5513 5510 5509 5511 5510 5509 5497 5475 5528 5539 5548 5530 5524 5513 5508 5523 5510 5508 5493 5486 5502 5502 5514 5477 5505 5479 5471 5461 5466 5443 5438 5452 5433 5405 5424 5452 5479 5525 5531 5509 5506 5506 5504 5503 5501
5499 5499 5502 5502 5499 5490 5475 5508 5528 5553 5533 5526 5527 5521 5504 5508 5500 5488 5485 5499 5524 5506 5485 5498 5468 5462 5452 5458 5444 5439 5445 5437 5415 5451 5430 5442 5454 5532 5520 5530 5492 5487 5494 5489 5480
5485 5486 5490 5489 5486 5467 5459 5485 5525 5541 5539 5521 5516 5511 5509 5496 5492 5484 5493 5517 5517 5499 5495 5455 5457 5433 5437 5433 5425 5417 5417 5401 5418 5430 5433 5416 5483 5504 5537 5519 5499 5494 5487 5483 5481
5471 5470 5477 5476 5459 5456 5463 5494 5522 5529 5523 5519 5516 5516 5504 5496 5479 5480 5494 5512 5502 5489 5482 5471 5423 5405 5422 5403 5408 5405 5418 5419 5440 5434 5396 5404 5462 5502 5496 5503 5493 5485 5478 5473 5474
5455 5451 5455 5458 5447 5461 5476 5496 5502 5503 5502 5498 5493 5496 5507 5488 5472 5486 5490 5486 5483 5477 5466 5468 5432 5408 5419 5411 5406 5402 5408 5408 5402 5382 5397 5439 5491 5497 5470 5479 5468 5468 5467 5462 5461
5445 5442 5434 5435 5448 5460 5467 5484 5487 5490 5487 5484 5486 5486 5481 5485 5486 5468 5451 5465 5468 5470 5477 5462 5422 5444 5476 5442 5413 5398 5402 5422 5430 5399 5403 5471 5495 5518 5488 5474 5453 5458 5457 5458 5455
5439 5451 5443 5429 5438 5445 5455 5467 5472 5466 5470 5472 5471 5474 5464 5443 5463 5457 5449 5432 5441 5452 5439 5436 5427 5427 5442 5433 5421 5421 5407 5410 5421 5433 5440 5507 5465 5518 5510 5486 5467 5474 5459 5443 5439
5438 5439 5433 5424 5444 5436 5440 5451 5460 5465 5456 5453 5459 5464 5458 5467 5477 5462 5449 5442 5445 5416 5417 5412 5423 5410 5409 5434 5431 5435 5435 5408 5408 5422 5426 5450 5467 5503 5504 5473 5470 5484 5453 5447 5450
5435 5433 5429 5440 5438 5428 5452 5458 5468 5459 5455 5466 5456 5447 5440 5467 5469 5461 5447 5441 5437 5422 5407 5404 5406 5405 5422 5380 5405 5413 5452 5439 5426 5417 5436 5418 5468 5485 5470 5470 5458 5465 5439 5448 5451